TimeCDT,TemperatureF,Dew PointF,Humidity,Sea Level PressureIn,VisibilityMPH,Wind Direction,Wind SpeedMPH,Gust SpeedMPH,PrecipitationIn,Events,Conditions,WindDirDegrees,DateUTC
12:53 AM,75.0,69.1,82,30.00,10.0,East,4.6,-,N/A,,Mostly Cloudy,100,2013-09-28 05:53:00
1:53 AM,73.9,69.1,85,30.00,10.0,East,4.6,-,N/A,,Overcast,100,2013-09-28 06:53:00
2:53 AM,72.0,69.1,91,30.00,10.0,East,4.6,-,N/A,,Partly Cloudy,100,2013-09-28 07:53:00
3:53 AM,71.1,68.0,90,29.99,10.0,East,3.5,-,N/A,,Clear,80,2013-09-28 08:53:00
4:53 AM,69.1,68.0,96,30.00,7.0,ENE,4.6,-,N/A,,Clear,70,2013-09-28 09:53:00
5:53 AM,68.0,66.9,96,30.01,8.0,ENE,4.6,-,N/A,,Clear,70,2013-09-28 10:53:00
6:53 AM,68.0,66.9,96,30.03,6.0,ENE,4.6,-,N/A,,Clear,60,2013-09-28 11:53:00
7:53 AM,70.0,68.0,93,30.05,6.0,ENE,3.5,-,N/A,,Clear,60,2013-09-28 12:53:00
8:53 AM,73.9,69.1,85,30.06,10.0,East,3.5,-,N/A,,Clear,90,2013-09-28 13:53:00
9:53 AM,78.1,70.0,76,30.07,10.0,East,6.9,-,N/A,,Clear,100,2013-09-28 14:53:00
10:53 AM,82.0,68.0,62,30.07,10.0,ESE,9.2,-,N/A,,Clear,110,2013-09-28 15:53:00
11:53 AM,84.0,66.0,55,30.07,10.0,East,6.9,-,N/A,,Partly Cloudy,80,2013-09-28 16:53:00
12:53 PM,84.0,66.0,55,30.05,10.0,Variable,4.6,-,N/A,,Scattered Clouds,0,2013-09-28 17:53:00
1:53 PM,84.0,63.0,49,30.03,10.0,East,5.8,-,N/A,,Scattered Clouds,100,2013-09-28 18:53:00
2:53 PM,88.0,64.0,45,30.00,10.0,ENE,8.1,-,N/A,,Clear,60,2013-09-28 19:53:00
3:53 PM,86.0,63.0,46,29.99,10.0,ESE,5.8,-,N/A,,Scattered Clouds,110,2013-09-28 20:53:00
4:53 PM,86.0,63.0,46,29.98,10.0,ENE,6.9,-,N/A,,Clear,70,2013-09-28 21:53:00
5:53 PM,84.0,64.0,51,29.98,10.0,ENE,3.5,-,N/A,,Scattered Clouds,60,2013-09-28 22:53:00
6:53 PM,79.0,66.0,64,29.99,10.0,East,6.9,-,N/A,,Partly Cloudy,100,2013-09-28 23:53:00
7:53 PM,75.0,66.9,76,30.01,10.0,East,4.6,-,N/A,,Clear,90,2013-09-29 00:53:00
8:53 PM,75.0,66.9,76,30.03,10.0,East,5.8,-,N/A,,Clear,100,2013-09-29 01:53:00
9:53 PM,73.0,66.9,81,30.04,10.0,ESE,4.6,-,N/A,,Clear,120,2013-09-29 02:53:00
10:53 PM,72.0,66.9,84,30.04,10.0,East,5.8,-,N/A,,Clear,100,2013-09-29 03:53:00
11:53 PM,71.1,66.9,87,30.04,10.0,East,4.6,-,N/A,,Clear,100,2013-09-29 04:53:00